Weather History for Greenville Downtown, SC

Change the Weather History Date:

Friday, November 22, 2013

  Actual Average Record
Temperature  
Mean Temperature 55 °F -  
Max Temperature 60 °F 59 °F 73 °F (2003)
Min Temperature 50 °F 40 °F 21 °F (2000)
Degree Days  
Heating Degree Days 10    
Growing Degree Days 5 (Base 50)    
Moisture  
Dew Point 52 °F    
Average Humidity 89    
Maximum Humidity 94    
Minimum Humidity 82    
Precipitation  
Precipitation 0.01 in - - ()
Sea Level Pressure  
Sea Level Pressure 30.29 in    
Wind  
Wind Speed 5 mph (West)    
Max Wind Speed 9 mph    
Max Gust Speed -    
Visibility 8 miles    
Events Rain    
Averages and records for this station are not official NWS values.
T = Trace of Precipitation, MM = Missing Value Source: NWS Daily Summary

Daily Weather History Graph

Daily Weather History Graph

Search for Another Location

Airport:

Trip Planner

Search our weather history database for the weather conditions in past years. The results will help you decide how hot, cold, wet, or windy it might be!

Date:

Astronomy

Nov. 22, 2013 Rise Set
Actual Time 7:10 AM EST 5:20 PM EST
Civil Twilight 6:43 AM EST 5:47 PM EST
Nautical Twilight 6:12 AM EST 6:18 PM EST
Astronomical Twilight 5:42 AM EST 6:48 PM EST
Moon 9:48 PM EST (11/22) 10:55 AM EST (11/22)
Length of Visible Light 11h 04m
Length of Day
10h 09m
Waning Gibbous, 78% of the Moon is Illuminated
Nov 22
Waning Gibbous
Nov 25
Last Quarter
Dec 2
New
Dec 9
First Quarter
Dec 17
Full

Hourly Weather History & Observations

Time (EST) Temp. Dew Point Humidity Pressure Visibility Wind Dir Wind Speed Gust Speed Precip Events Conditions
12:09 AM 50.0 °F 46.4 °F 87% 30.40 in 8.0 mi NNE 5.8 mph - N/A   Overcast
12:29 AM 50.0 °F 46.4 °F 87% 30.39 in 9.0 mi North 5.8 mph - 0.00 in   Overcast
12:53 AM 50.0 °F 46.9 °F 89% 30.39 in 8.0 mi NNE 4.6 mph - 0.00 in Rain Light Rain
1:32 AM 50.0 °F 48.2 °F 94% 30.38 in 9.0 mi North 3.5 mph - 0.00 in   Overcast
1:53 AM 50.0 °F 46.9 °F 89% 30.38 in 7.0 mi North 5.8 mph - 0.00 in Rain Light Rain
2:10 AM 50.0 °F 48.2 °F 94% 30.38 in 9.0 mi North 6.9 mph - 0.00 in Rain Light Rain
2:31 AM 50.0 °F 48.2 °F 94% 30.38 in 7.0 mi North 4.6 mph - 0.00 in   Overcast
2:53 AM 50.0 °F 48.0 °F 93% 30.38 in 8.0 mi North 5.8 mph - 0.00 in   Overcast
3:53 AM 51.1 °F 48.9 °F 92% 30.36 in 10.0 mi NE 5.8 mph - N/A   Overcast
4:02 AM 51.8 °F 48.2 °F 88% 30.35 in 10.0 mi Calm Calm - N/A   Overcast
4:25 AM 51.8 °F 48.2 °F 88% 30.35 in 10.0 mi North 4.6 mph - N/A   Overcast
4:53 AM 51.1 °F 48.9 °F 92% 30.36 in 9.0 mi North 3.5 mph - N/A   Overcast
5:09 AM 51.8 °F 48.2 °F 88% 30.35 in 10.0 mi North 3.5 mph - N/A   Overcast
5:53 AM 52.0 °F 48.9 °F 89% 30.35 in 10.0 mi Calm Calm - N/A   Overcast
6:53 AM 52.0 °F 48.9 °F 89% 30.35 in 10.0 mi Calm Calm - 0.00 in   Overcast
7:53 AM 52.0 °F 50.0 °F 93% 30.35 in 9.0 mi Calm Calm - N/A   Overcast
8:46 AM 53.6 °F 51.8 °F 94% 30.35 in 9.0 mi Calm Calm - N/A   Overcast
8:53 AM 53.1 °F 51.1 °F 93% 30.35 in 9.0 mi SE 3.5 mph - N/A   Overcast
9:53 AM 55.0 °F 52.0 °F 89% 30.35 in 10.0 mi Calm Calm - N/A   Overcast
10:53 AM 57.0 °F 52.0 °F 83% 30.33 in 9.0 mi Calm Calm - N/A   Overcast
11:53 AM 57.0 °F 53.1 °F 87% 30.32 in 6.0 mi Calm Calm - 0.01 in   Overcast
12:33 PM 57.2 °F 53.6 °F 88% 30.30 in 3.0 mi WSW 3.5 mph - N/A   Overcast
12:53 PM 57.0 °F 54.0 °F 89% 30.29 in 5.0 mi SW 4.6 mph - N/A   Overcast
1:37 PM 57.2 °F 55.4 °F 94% 30.27 in 9.0 mi SW 5.8 mph - N/A   Overcast
1:53 PM 59.0 °F 55.0 °F 87% 30.26 in 6.0 mi SSW 4.6 mph - N/A   Overcast
2:53 PM 60.1 °F 55.0 °F 83% 30.23 in 10.0 mi WSW 6.9 mph - N/A   Overcast
3:53 PM 60.1 °F 55.0 °F 83% 30.22 in 10.0 mi SW 6.9 mph - N/A   Overcast
4:16 PM 60.8 °F 55.4 °F 82% 30.22 in 10.0 mi SW 6.9 mph - N/A   Overcast
4:36 PM 60.8 °F 55.4 °F 82% 30.21 in 10.0 mi SW 8.1 mph - N/A   Overcast
4:53 PM 60.1 °F 55.0 °F 83% 30.21 in 10.0 mi WSW 6.9 mph - N/A   Overcast
5:22 PM 60.8 °F 55.4 °F 82% 30.21 in 10.0 mi SW 5.8 mph - N/A   Overcast
5:53 PM 59.0 °F 55.0 °F 87% 30.20 in 10.0 mi WSW 3.5 mph - N/A   Overcast
6:33 PM 59.0 °F 55.4 °F 88% 30.20 in 10.0 mi SW 4.6 mph - N/A   Overcast
6:53 PM 59.0 °F 55.0 °F 87% 30.19 in 10.0 mi SW 6.9 mph - N/A   Overcast
7:04 PM 59.0 °F 55.4 °F 88% 30.20 in 10.0 mi WSW 5.8 mph - N/A   Overcast
7:53 PM 59.0 °F 55.0 °F 87% 30.18 in 10.0 mi WSW 6.9 mph - N/A   Overcast
8:53 PM 59.0 °F 55.0 °F 87% 30.17 in 5.0 mi West 6.9 mph - N/A   Overcast
9:53 PM 59.0 °F 55.0 °F 87% 30.17 in 7.0 mi WSW 9.2 mph - N/A   Overcast
10:13 PM 57.2 °F 55.4 °F 94% 30.17 in 7.0 mi West 6.9 mph - N/A   Overcast
10:32 PM 57.2 °F 55.4 °F 94% 30.17 in 7.0 mi WSW 8.1 mph - N/A   Overcast
10:53 PM 59.0 °F 55.0 °F 87% 30.16 in 7.0 mi WSW 6.9 mph - N/A   Overcast
11:53 PM 59.0 °F 55.9 °F 90% 30.15 in 6.0 mi WSW 5.8 mph - N/A   Overcast